Notices

What's New in latest Release from April 7th, 2021:

- Updated Glossary, including Speed of Maximum Gust, and Total Hourly Precipitation

- Updated national and regional climate services offices contacts and prices information

- Addition of station inventory lists for 1981-2010, 1971-2000, and 1961-1990 Normals.

If you haven't already, please take our survey and provide feedback about our website: https://eccc.sondage-survey.ca/f/LanguageSelection.aspx?s=442ca660-fcf1-47c0-95a9-59707d6fd709

Hourly Data Report for June 17, 2020

TRENTON A
ONTARIO
Current Station Operator: DND

44°07'00.000" N
77°32'00.000" W
86.30 m
6158875
71621
YTR

Download Data

Hourly Data (June 2020)
Hourly Data Report for June 17, 2020
TIME
LST
Temp Definition
°C
Dew Point Definition
°C
Rel Hum Definition
%
Precip. Amount Definition
mm

Wind Dir Definition
10's deg

Wind Spd Definition
km/h
Visibility Definition
km
Stn Press Definition
kPa
Hmdx Definition


Wind Chill Definition


Weather Definition


00:00 11.3 9.6 89   6 4 24.1 101.48     Clear
01:00 10.6 9.4 92   5 4 24.1 101.45     Clear
02:00 11.4 9.0 85   35 5 24.1 101.44     Clear
03:00 10.7 9.3 91     0 24.1 101.49     Clear
04:00 9.0 8.2 95   3 4 24.1 101.50     Clear
05:00 9.0 8.8 99   1 5 24.1 101.54     Clear
06:00 12.8 11.1 89     0 24.1 101.51     Clear
07:00 16.8 12.8 77   1 5 24.1 101.52     Clear
08:00 20.2 13.7 66   12 4 24.1 101.54     Clear
09:00 22.2 13.6 58   13 5 24.1 101.50 25   Clear
10:00 24.5 11.5 44   13 5 24.1 101.46 27   Clear
11:00 25.2 11.5 42   13 4 24.1 101.43 27   Clear
12:00 25.8 13.0 45   22 8 24.1 101.39 29   Clear
13:00 26.2 11.7 40   22 15 24.1 101.36 28   Clear
14:00 26.1 11.9 41   22 15 24.1 101.30 28   Clear
15:00 26.6 11.8 40   21 13 24.1 101.24 29   Clear
16:00 26.1 9.6 35   22 15 24.1 101.18 27   Clear
17:00 26.3 10.1 36   21 11 24.1 101.12 28   Clear
18:00 25.5 9.7 37   21 13 24.1 101.09 27   Clear
19:00 24.7 10.5 41   22 9 24.1 101.10 26   Clear
20:00 20.9 13.7 63     0 24.1 101.06     Mainly Clear
21:00 18.7 13.3 71     0 24.1 101.09     Clear
22:00 16.6 12.3 76     0 24.1 101.08     Clear
23:00 14.1 11.8 86   3 4 24.1 101.07     Clear

Notes on Data Quality.

Legend

  • E = Estimated
  • M = Missing
  • NA = Not Available*
  • [empty] = Indicates an unobserved value
Date modified: